Starlink 5876

operational
NORAD ID: 56321 Int'l Des: 2023-058 Owner: SPXS Country: US Constellation: starlink
LEOCIRCULARRETROGRADESSO

About Starlink 5876

Description loading...

Live Position

Loading 3D Globe...

Upcoming Passes

Altitude History

Altitude vs Time

uPlot chart will show altitude changes over time

Two-Line Element Set

1 56321U 23058E 26036.01904677 -.00087091 00000-0 -61120-2 0 9995
2 56321 97.6054 39.0548 0001406 69.2670 290.8707 15.05610924152936
Epoch: Feb 5, 2026 • Age: 13 hours

Current Status

Altitude 552.6 km
Velocity 7.59 km/s
Sub-Earth Point 20.12°N, 122.21°W
Launch Date Apr 27, 2023
Age 2.7 years
Type internet

Technical Details

Classification Payload
Mass 300.00 kg
Dry Mass 260.00 kg
Total Mass 300.00 kg
Length 0.20 m
Diameter 2.80 m
Span 9.00 m
Shape Box + pan
Manufacturer SPXS
Bus Type Starlink
Phase Status In Orbit
Owner/State SPXS/US

Large Constellations

Loading constellations...